Regional Weather Roundup
Issued by NWS

Home | Current Version | Previous Version | Text Only | Print | Product List | Glossary On
Versions: 1 2 3 4 5 6 7 8 9 10 11 12 13 14 15 16 17 18 19 20 21 22 23 24 25 26 27 28 29 30 31 32 33 34 35 36 37 38 39 40 41 42 43 44 45 46 47 48 49 50
000
ASUS44 KEWX 210602
RWRTX
SOUTH TEXAS REGIONAL WEATHER ROUNDUP
NATIONAL WEATHER SERVICE AUSTIN/SAN ANTONIO TX
100 AM CDT THU AUG 21 2014

NOTE: "FAIR" INDICATED FEW OR NO CLOUDS BELOW 12,000 FEET WITH NO
SIGNIFICANT WEATHER AND/OR OBSTRUCTIONS TO VISIBILITY.

* - THESE STATIONS ARE NOT NWS OR FAA STATIONS...AND ARE NOT SUBJECT
    TO NWS AND FAA QUALITY CONTROL.

TXZ171-172-183>190-210700-
TEXAS HILL COUNTRY AND EDWARDS PLATEAU

CITY           SKY/WX    TMP DP  RH WIND       PRES   REMARKS
JUNCTION       FAIR      81  71  71 SE16G25   30.00R
6HR MIN TEMP:  78; 6HR MAX TEMP:  91;

*LLANO         FAIR      82  70  65 S10G17    30.03R
BURNET         FAIR      80  71  74 S8G20     30.04R
6HR MIN TEMP:  80; 6HR MAX TEMP:  95;

*HORSESHOE BAY FAIR      81  68  65 S13G21    30.00S
6HR MIN TEMP:  81; 6HR MAX TEMP:  96;

*KERRVILLE     FAIR      79  71  76 SE14      30.04R
*FREDERICKSBRG FAIR      78  69  71 S7        30.04R
6HR MIN TEMP:  78; 6HR MAX TEMP:  92;

*ROCKSPRINGS   FAIR      79  70  73 SE13G23   30.05S
*BOERNE STAGE  FAIR      79  68  69 S10G17    30.04R
*CASTROVILLE   FAIR      82  70  66 SE9G17    30.02R
HONDO          MOCLDY    81  72  74 SE15G24   30.01R
6HR MIN TEMP:  81; 6HR MAX TEMP:  95;

*UVALDE        DRIZZLE   78  72  81 SE10      29.97F
6HR MIN TEMP:  75; 6HR MAX TEMP:  98; 6HR PCP:  0.23;

DEL RIO        FAIR      88  69  53 SE15      29.91R HX  92
6HR MIN TEMP:  88; 6HR MAX TEMP:  98;

LAUGHLIN AFB   FAIR      85  70  61 SE14      29.92S
6HR MIN TEMP:  83; 6HR MAX TEMP:  96;

CARRIZO SPRGS  FAIR      86  70  58 SE16G24   29.92S HX  90
$$

TXZ173-191>194-202-209-217>225-228-210700-
CENTRAL AND SOUTH CENTRAL TEXAS

CITY           SKY/WX    TMP DP  RH WIND       PRES   REMARKS
GEORGETOWN     FAIR      82  72  69 S14G24    30.01F
6HR MIN TEMP:  82; 6HR MAX TEMP:  97;

AUSTIN/BERGSTM FAIR      81  73  76 S9        30.00S
6HR MIN TEMP:  81; 6HR MAX TEMP:  97;

AUSTIN/MABRY   FAIR      82  73  74 S10G18    30.01R
6HR MIN TEMP:  82; 6HR MAX TEMP:  97;

*AUSTIN/EXEC   FAIR      81  73  78 S8        30.01S
*LAGO VISTA    FAIR      80  72  75 S10G21    30.03S
6HR MIN TEMP:  80; 6HR MAX TEMP:  95;

SAN MARCOS     MOCLDY    81  70  69 S10       30.03R
6HR MIN TEMP:  81; 6HR MAX TEMP:  97;

NEW BRAUNFELS  MOCLDY    81  73  76 S12       30.00R
6HR MIN TEMP:  81; 6HR MAX TEMP:  96;

RANDOLPH AFB   FAIR      80  73  78 SE12      30.02R
6HR MIN TEMP:  80; 6HR MAX TEMP:  94;

PT SAN ANTONIO CLEAR     81  73  75 SE17      30.00R
6HR MIN TEMP:  81; 6HR MAX TEMP:  95;

SAN ANTONIO    FAIR      82  72  71 SE15      30.02R
6HR MIN TEMP:  82; 6HR MAX TEMP:  96;

STINSON FIELD  FAIR      81  73  76 SE14      29.99R
6HR MIN TEMP:  81; 6HR MAX TEMP:  96;

*PLEASANTON    FAIR      82  73  73 SE14      29.99S
6HR MIN TEMP:  82; 6HR MAX TEMP:  94;

*LA GRANGE     FAIR      82  77  87 S6        29.99S
6HR MIN TEMP:  82; 6HR MAX TEMP:  95;

*GIDDINGS      FAIR      81  73  78 S9        30.05R
*GONZALES      CLOUDY    82  77  85 S12       30.00R HX  90
6HR MIN TEMP:  82; 6HR MAX TEMP:  95;

$$

TXZ163>164-176>182-195>201-210>213-226-227-235-210700-
SOUTHEAST TEXAS

CITY           SKY/WX    TMP DP  RH WIND       PRES   REMARKS
COLLEGE STN    FAIR      81  75  82 S12       30.01R
6HR MIN TEMP:  81; 6HR MAX TEMP:  84;

*BRYAN         FAIR      80  74  82 S12       30.02R
6HR MIN TEMP:  80; 6HR MAX TEMP:  84;

*CALDWELL      FAIR      81  75  83 S9        30.04R
*CROCKETT        N/A    N/A N/A N/A MISG        N/A
*BRENHAM       FAIR      82  77  84 S7        30.02R
6HR MIN TEMP:  82; 6HR MAX TEMP:  88;

HUNTSVILLE     FAIR      79  75  87 S7        30.03R
6HR MIN TEMP:  79; 6HR MAX TEMP:  82;

CONROE         FAIR      75  74  96 SE3       30.03S
6HR MIN TEMP:  74; 6HR MAX TEMP:  77;

HOUSTON BUSH   FAIR      82  78  88 S5        30.02S HX  91
6HR MIN TEMP:  82; 6HR MAX TEMP:  85;

HOUSTON HOBBY  FAIR      81  77  88 S5        30.02S
6HR MIN TEMP:  80; 6HR MAX TEMP:  87;

*HOUSTON SW AP FAIR      78  77  96 MISG      30.02F
6HR MIN TEMP:  78; 6HR MAX TEMP:  87;

PEARLAND       FAIR      82  77  84 SE6       30.03S HX  90
6HR MIN TEMP:  82; 6HR MAX TEMP:  88;

HOUSTON HOOKS  FAIR      82  78  88 S5        30.02S HX  91
6HR MIN TEMP:  82; 6HR MAX TEMP:  85;

ELLINGTON FLD  PTCLDY    82  77  83 S6        30.03S HX  91
SUGAR LAND     FAIR      81  77  88 S10       30.01S
6HR MIN TEMP:  81; 6HR MAX TEMP:  89;

*HOUSTON EXEC  FAIR      79  79 100 SE7       30.03S
*CLEVELAND MUN FAIR      74  73  98 CALM      30.04S FOG
6HR MIN TEMP:  74; 6HR MAX TEMP:  77;

*WHARTON       FAIR      78  76  92 SE6       30.02S
6HR MIN TEMP:  78; 6HR MAX TEMP:  88;

$$

TXZ214>216-236>238-210700-
THE UPPER TEXAS COAST

CITY           SKY/WX    TMP DP  RH WIND       PRES   REMARKS
*ORANGE        FAIR      84  78  82 S8        30.05R HX  95
6HR MIN TEMP:  83; 6HR MAX TEMP:  87;

PORT ARTHUR    FAIR      83  77  82 S7        30.03S HX  92
6HR MIN TEMP:  83; 6HR MAX TEMP:  87;

GALVESTON      FAIR      85  78  80 S17       30.04S HX  96
6HR MIN TEMP:  85; 6HR MAX TEMP:  88;

ANGLETON       FAIR      82  78  88 S9        30.02S HX  91
6HR MIN TEMP:  81; 6HR MAX TEMP:  87;

*BAY CITY      FAIR      83  83  99 SE7       30.01F HX 101
PALACIOS       FAIR      85  79  82 SE16G25   30.01S HX  98
6HR MIN TEMP:  85; 6HR MAX TEMP:  88;

$$

TXZ229>234-239>247-210700-
TEXAS COASTAL BEND AND RIO GRANDE PLAINS

CITY           SKY/WX    TMP DP  RH WIND       PRES   REMARKS
VICTORIA       FAIR      83  79  88 SE8       30.00F HX  94
6HR MIN TEMP:  83; 6HR MAX TEMP:  90;

*BEEVILLE      MOCLDY    84  77  80 S16G23    30.00R HX  93
6HR MIN TEMP:  83; 6HR MAX TEMP:  90;

ROCKPORT       LGT RAIN  85  80  85 SE13G23   29.99R HX  99
6HR MIN TEMP:  83; 6HR MAX TEMP:  88; 6HR PCP: TRACE;

*PORT ARANSAS  FAIR      83  79  89 S12       29.99S HX  94
6HR MIN TEMP:  83; 6HR MAX TEMP:  86;

*PORT LAVACA   FAIR      82  79  88 SE8       30.00S HX  92
6HR MIN TEMP:  82; 6HR MAX TEMP:  87;

*INGLESIDE     FAIR      85  79  80 S16G23    29.98S HX  98
CORPUS CHRISTI FAIR      84  79  85 S20       29.99R HX  96
6HR MIN TEMP:  84; 6HR MAX TEMP:  89;

CORPUS NAS     FAIR      84  81  90 S16       29.98S HX  99
6HR MIN TEMP:  84; 6HR MAX TEMP:  87;

*ROBSTOWN      NOT AVBL
ALICE          MOCLDY    84  78  82 S15       29.98S HX  95
6HR MIN TEMP:  83; 6HR MAX TEMP:  91;

KINGSVILLE NAS MOCLDY    85  80  85 SE16G24   29.98S HX  99
6HR MIN TEMP:  85; 6HR MAX TEMP:  89;

COTULLA        MOCLDY    84  74  71 SE20      29.95F HX  91
6HR MIN TEMP:  84; 6HR MAX TEMP:  98;

*FAITH RANCH   FAIR      86  70  58 SE17G30   29.93S HX  90
LAREDO         FAIR      87  73  62 SE21G26   29.96S HX  94
6HR MIN TEMP:  87; 6HR MAX TEMP: 101;

$$

TXZ248>255-210700-
DEEP SOUTH TEXAS

CITY           SKY/WX    TMP DP  RH WIND       PRES   REMARKS
BROWNSVILLE    FAIR      83  77  82 S17       30.00S HX  92
6HR MIN TEMP:  83; 6HR MAX TEMP:  89;

PORT ISABEL    FAIR      84  77  79 S15       29.99S HX  94
6HR MIN TEMP:  84; 6HR MAX TEMP:  90;

*SOUTH PADRE     N/A     81  77  89 S13       30.01R
HARLINGEN      MOCLDY    83  78  85 S18       29.98S HX  93
6HR MIN TEMP:  83; 6HR MAX TEMP:  91;

*HEBBRONVILLE  FAIR      83  74  73 SE14G21   29.99S
MCALLEN        MOCLDY    84  77  79 SE20G26   29.98S HX  94


USA.gov is the U.S. government's official web portal to all federal, state and local government web resources and services.